Time,TemperatureF,DewpointF,PressureIn,WindDirection,WindDirectionDegrees,WindSpeedMPH,WindSpeedGustMPH,Humidity,HourlyPrecipIn,Conditions,Clouds,dailyrainin,SoftwareType,DateUTC
2013-02-17 00:00:00,18.5,14.2,30.22,SSE,158,0.0,3.0,83,0.00,,---,0.00,VWS V14.01,2013-02-17 05:00:00,
2013-02-17 00:30:00,18.0,13.7,30.23,SSE,158,0.0,4.0,83,0.00,,---,0.00,VWS V14.01,2013-02-17 05:30:00,
2013-02-17 01:00:00,17.9,12.5,30.23,SSE,158,0.0,2.0,79,0.00,,---,0.00,VWS V14.01,2013-02-17 06:00:00,
2013-02-17 01:30:00,17.6,12.2,30.24,SE,135,0.0,4.0,79,0.00,,---,0.00,VWS V14.01,2013-02-17 06:30:00,
2013-02-17 02:00:00,17.0,11.9,30.23,SE,135,0.0,2.0,80,0.00,,---,0.00,VWS V14.01,2013-02-17 07:00:00,
2013-02-17 02:30:00,16.1,10.8,30.24,SE,135,0.0,1.0,79,0.00,,---,0.00,VWS V14.01,2013-02-17 07:30:00,
2013-02-17 03:00:00,15.8,9.9,30.24,SE,135,0.0,2.0,77,0.00,,---,0.00,VWS V14.01,2013-02-17 08:00:00,
2013-02-17 03:30:00,14.9,9.9,30.25,SE,135,0.0,1.0,80,0.00,,---,0.00,VWS V14.01,2013-02-17 08:30:00,
2013-02-17 04:00:00,14.4,9.6,30.25,SE,135,0.0,0.0,81,0.00,,---,0.00,VWS V14.01,2013-02-17 09:00:00,
2013-02-17 04:30:00,14.0,9.5,30.25,SE,135,0.0,1.0,82,0.00,,---,0.00,VWS V14.01,2013-02-17 09:30:00,
2013-02-17 05:00:00,13.5,9.0,30.26,SE,135,0.0,0.0,82,0.00,,---,0.00,VWS V14.01,2013-02-17 10:00:00,
2013-02-17 05:30:00,13.2,8.8,30.27,SE,135,0.0,2.0,82,0.00,,---,0.00,VWS V14.01,2013-02-17 10:30:00,
2013-02-17 06:00:00,12.8,8.4,30.28,SE,135,0.0,0.0,82,0.00,,---,0.00,VWS V14.01,2013-02-17 11:00:00,
2013-02-17 06:30:00,12.4,8.2,30.29,SE,135,0.0,0.0,83,0.00,,---,0.00,VWS V14.01,2013-02-17 11:30:00,
2013-02-17 07:00:00,12.1,7.9,30.29,SE,135,0.0,0.0,83,0.00,,---,0.00,VWS V14.01,2013-02-17 12:00:00,
2013-02-17 07:30:00,11.6,7.4,30.30,SE,135,0.0,0.0,83,0.00,,---,0.00,VWS V14.01,2013-02-17 12:30:00,
2013-02-17 08:00:00,10.7,6.3,30.31,SE,135,0.0,0.0,82,0.00,,---,0.00,VWS V14.01,2013-02-17 13:00:00,
2013-02-17 08:30:00,11.6,7.4,30.32,SE,135,0.0,1.0,83,0.00,,---,0.00,VWS V14.01,2013-02-17 13:30:00,
2013-02-17 09:00:00,13.7,8.1,30.32,SE,135,0.0,1.0,78,0.00,,---,0.00,VWS V14.01,2013-02-17 14:00:00,
2013-02-17 09:30:00,16.4,9.9,30.33,SE,135,0.0,1.0,75,0.00,,---,0.00,VWS V14.01,2013-02-17 14:30:00,
2013-02-17 10:00:00,19.8,11.6,30.33,SE,135,0.0,1.0,70,0.00,,---,0.00,VWS V14.01,2013-02-17 15:00:00,
2013-02-17 10:30:00,22.2,11.5,30.34,SE,135,0.0,1.0,63,0.00,,---,0.00,VWS V14.01,2013-02-17 15:30:00,
2013-02-17 11:00:00,24.1,12.2,30.34,SE,135,0.0,1.0,60,0.00,,---,0.00,VWS V14.01,2013-02-17 16:00:00,
2013-02-17 11:30:00,25.8,13.5,30.34,SSE,158,0.0,3.0,59,0.00,,---,0.00,VWS V14.01,2013-02-17 16:30:00,
2013-02-17 12:00:00,26.0,12.1,30.34,North,0,0.0,2.0,55,0.01,,---,0.01,VWS V14.01,2013-02-17 17:00:00,
2013-02-17 12:30:00,26.7,11.9,30.33,NNE,22,0.0,2.0,53,0.01,,---,0.01,VWS V14.01,2013-02-17 17:30:00,
2013-02-17 13:00:00,27.6,13.1,30.32,North,0,0.0,4.0,54,0.01,,---,0.01,VWS V14.01,2013-02-17 18:00:00,
2013-02-17 13:30:00,28.0,13.1,30.31,North,0,0.0,4.0,53,0.00,,---,0.01,VWS V14.01,2013-02-17 18:30:00,
2013-02-17 14:00:00,28.0,12.7,30.30,North,0,0.0,5.0,52,0.00,,---,0.01,VWS V14.01,2013-02-17 19:00:00,
2013-02-17 14:30:00,28.5,11.8,30.31,North,0,0.0,5.0,49,0.00,,---,0.01,VWS V14.01,2013-02-17 19:30:00,
2013-02-17 15:00:00,28.8,11.1,30.30,NNW,338,0.0,5.0,47,0.00,,---,0.01,VWS V14.01,2013-02-17 20:00:00,
2013-02-17 15:30:00,29.8,12.0,30.29,NNW,338,0.0,4.0,47,0.00,,---,0.01,VWS V14.01,2013-02-17 20:30:00,
2013-02-17 16:00:00,30.1,10.8,30.28,NNW,338,0.0,3.0,44,0.00,,---,0.01,VWS V14.01,2013-02-17 21:00:00,
2013-02-17 16:30:00,30.6,10.2,30.28,North,0,0.0,2.0,42,0.00,,---,0.01,VWS V14.01,2013-02-17 21:30:00,
2013-02-17 17:00:00,30.6,10.8,30.28,North,0,0.0,3.0,43,0.00,,---,0.01,VWS V14.01,2013-02-17 22:00:00,
2013-02-17 17:30:00,30.3,10.0,30.27,North,0,0.0,0.0,42,0.00,,---,0.01,VWS V14.01,2013-02-17 22:30:00,
2013-02-17 18:00:00,29.7,10.0,30.27,North,0,0.0,1.0,43,0.00,,---,0.01,VWS V14.01,2013-02-17 23:00:00,
2013-02-17 18:30:00,28.9,9.2,30.26,North,0,0.0,0.0,43,0.00,,---,0.01,VWS V14.01,2013-02-17 23:30:00,
2013-02-17 19:00:00,27.9,10.8,30.27,North,0,0.0,0.0,48,0.00,,---,0.01,VWS V14.01,2013-02-18 00:00:00,
2013-02-17 19:30:00,27.1,13.5,30.26,North,0,0.0,0.0,56,0.00,,---,0.01,VWS V14.01,2013-02-18 00:30:00,
2013-02-17 20:00:00,26.5,14.1,30.25,North,0,0.0,0.0,59,0.00,,---,0.01,VWS V14.01,2013-02-18 01:00:00,
2013-02-17 20:59:00,25.8,13.9,30.26,North,350,0.0,0.0,60,0.00,,---,0.01,VWS V14.01,2013-02-18 01:59:00,
2013-02-17 21:04:00,25.7,13.8,30.26,North,350,0.0,0.0,60,0.00,,---,0.01,VWS V14.01,2013-02-18 02:04:00,
2013-02-17 21:09:00,25.7,13.8,30.25,North,350,0.0,1.0,60,0.00,,---,0.01,VWS V14.01,2013-02-18 02:09:00,
2013-02-17 21:14:00,25.6,13.7,30.26,North,350,0.0,1.0,60,0.00,,---,0.01,VWS V14.01,2013-02-18 02:14:00,
2013-02-17 21:19:00,25.5,13.6,30.26,North,350,0.0,1.0,60,0.00,,---,0.01,VWS V14.01,2013-02-18 02:19:00,
2013-02-17 21:24:00,25.5,13.6,30.26,North,350,0.0,1.0,60,0.00,,---,0.01,VWS V14.01,2013-02-18 02:24:00,
2013-02-17 21:29:00,25.5,13.6,30.27,North,350,0.0,1.0,60,0.00,,---,0.01,VWS V14.01,2013-02-18 02:29:00,
2013-02-17 21:34:00,25.4,13.5,30.26,North,350,0.0,0.0,60,0.00,,---,0.01,VWS V14.01,2013-02-18 02:34:00,
2013-02-17 21:39:00,25.4,13.5,30.26,North,350,0.0,0.0,60,0.00,,---,0.01,VWS V14.01,2013-02-18 02:39:00,
2013-02-17 21:44:00,25.3,13.4,30.27,North,350,0.0,0.0,60,0.00,,---,0.01,VWS V14.01,2013-02-18 02:44:00,
2013-02-17 21:49:00,25.2,13.3,30.26,North,350,0.0,0.0,60,0.00,,---,0.01,VWS V14.01,2013-02-18 02:49:00,
2013-02-17 21:54:00,25.2,13.3,30.26,North,350,0.0,0.0,60,0.00,,---,0.01,VWS V14.01,2013-02-18 02:54:00,
2013-02-17 21:59:00,25.1,13.2,30.26,North,350,0.0,0.0,60,0.00,,---,0.01,VWS V14.01,2013-02-18 02:59:00,
2013-02-17 22:04:00,25.1,13.2,30.26,North,350,0.0,0.0,60,0.00,,---,0.01,VWS V14.01,2013-02-18 03:04:00,
2013-02-17 22:09:00,25.1,13.6,30.26,North,350,0.0,0.0,61,0.00,,---,0.01,VWS V14.01,2013-02-18 03:09:00,
2013-02-17 22:14:00,25.1,13.6,30.26,North,350,0.0,0.0,61,0.00,,---,0.01,VWS V14.01,2013-02-18 03:14:00,
2013-02-17 22:19:00,25.1,13.6,30.26,North,350,0.0,0.0,61,0.00,,---,0.01,VWS V14.01,2013-02-18 03:19:00,
2013-02-17 22:24:00,25.1,13.6,30.25,North,350,0.0,1.0,61,0.00,,---,0.01,VWS V14.01,2013-02-18 03:24:00,
2013-02-17 22:29:00,25.1,13.6,30.25,North,350,0.0,1.0,61,0.00,,---,0.01,VWS V14.01,2013-02-18 03:29:00,
2013-02-17 22:34:00,25.2,13.6,30.25,North,350,0.0,1.0,61,0.00,,---,0.01,VWS V14.01,2013-02-18 03:34:00,
2013-02-17 22:39:00,25.3,13.8,30.25,North,350,0.0,1.0,61,0.00,,---,0.01,VWS V14.01,2013-02-18 03:39:00,
2013-02-17 22:44:00,25.4,13.8,30.25,North,350,0.0,2.0,61,0.00,,---,0.01,VWS V14.01,2013-02-18 03:44:00,
2013-02-17 22:49:00,25.4,13.8,30.25,North,350,0.0,2.0,61,0.00,,---,0.01,VWS V14.01,2013-02-18 03:49:00,
2013-02-17 22:54:00,25.4,14.2,30.25,North,350,0.0,2.0,62,0.00,,---,0.01,VWS V14.01,2013-02-18 03:54:00,
2013-02-17 22:59:00,25.4,14.2,30.25,North,350,0.0,2.0,62,0.00,,---,0.01,VWS V14.01,2013-02-18 03:59:00,
2013-02-17 23:04:00,25.4,14.2,30.25,North,350,0.0,1.0,62,0.00,,---,0.01,VWS V14.01,2013-02-18 04:04:00,
2013-02-17 23:09:00,25.3,14.1,30.24,North,350,0.0,1.0,62,0.00,,---,0.01,VWS V14.01,2013-02-18 04:09:00,
2013-02-17 23:14:00,25.3,14.1,30.24,North,350,0.0,2.0,62,0.00,,---,0.01,VWS V14.01,2013-02-18 04:14:00,
2013-02-17 23:19:00,25.3,14.1,30.24,North,350,0.0,2.0,62,0.00,,---,0.01,VWS V14.01,2013-02-18 04:19:00,
2013-02-17 23:24:00,25.3,14.1,30.25,North,350,0.0,2.0,62,0.00,,---,0.01,VWS V14.01,2013-02-18 04:24:00,
2013-02-17 23:29:00,25.2,14.0,30.25,North,350,0.0,2.0,62,0.00,,---,0.01,VWS V14.01,2013-02-18 04:29:00,
2013-02-17 23:34:00,25.2,14.0,30.25,North,350,0.0,0.0,62,0.00,,---,0.01,VWS V14.01,2013-02-18 04:34:00,
2013-02-17 23:39:00,25.2,14.0,30.25,North,350,0.0,0.0,62,0.00,,---,0.01,VWS V14.01,2013-02-18 04:39:00,
2013-02-17 23:44:00,25.2,14.0,30.25,North,350,0.0,1.0,62,0.00,,---,0.01,VWS V14.01,2013-02-18 04:44:00,
2013-02-17 23:49:00,25.2,14.0,30.25,North,350,0.0,1.0,62,0.00,,---,0.01,VWS V14.01,2013-02-18 04:49:00,
2013-02-17 23:54:00,25.2,13.6,30.24,North,350,0.0,1.0,61,0.00,,---,0.01,VWS V14.01,2013-02-18 04:54:00,
2013-02-17 23:59:00,25.3,13.8,30.24,North,350,0.0,1.0,61,0.00,,---,0.01,VWS V14.01,2013-02-18 04:59:00,